Liberal, KS

8:54 PM CDT on April 23, 2018 (GMT -0500)
Liberal Municipal

Weather History for KLBL - October, 2013

Change the Weather History Date:

Monday, October 21, 2013

  Actual Average Record
Temperature  
Mean Temperature 52 °F -  
Max Temperature 62 °F 71 °F 89 °F (1940)
Min Temperature 41 °F 42 °F 30 °F (1976)
Degree Days  
Heating Degree Days 14    
Growing Degree Days 2 (Base 50)    
Moisture  
Dew Point 33 °F    
Average Humidity 56    
Maximum Humidity 81    
Minimum Humidity 26    
Precipitation  
Precipitation 0.00 in - - ()
Sea Level Pressure  
Sea Level Pressure 30.14 in    
Wind  
Wind Speed 11 mph (NW)    
Max Wind Speed 18 mph    
Max Gust Speed 22 mph    
Visibility 10 miles    
Events      
Averages and records for this station are not official NWS values.
T = Trace of Precipitation, MM = Missing Value Source: NWS Daily Summary

Daily Weather History Graph

Daily Weather History Graph

Search for Another Location

Airport or City:

Astronomy

Oct. 21, 2013 Rise Set
Actual Time 7:57 AM CDT 6:58 PM CDT
Civil Twilight 7:31 AM CDT 7:25 PM CDT
Nautical Twilight 7:00 AM CDT 7:55 PM CDT
Astronomical Twilight 6:30 AM CDT 8:25 PM CDT
Moon 8:56 PM CDT (10/21) 10:30 AM CDT (10/21)
Length of Visible Light 11h 54m
Length of Day
11h 01m
Waning Gibbous, 92% of the Moon is Illuminated
Oct 21
Waning Gibbous
Oct 26
Last Quarter
Nov 3
New
Nov 9
First Quarter
Nov 17
Full

Hourly Weather History & Observations

Time (CDT) Temp. Windchill Dew Point Humidity Pressure Visibility Wind Dir Wind Speed Gust Speed Precip Events Conditions
12:15 AM 48.2 °F - 37.4 °F 66% 30.06 in 10.0 mi North 13.8 mph - N/A   Clear
12:35 AM 48.2 °F - 37.4 °F 66% 30.06 in 10.0 mi North 16.1 mph 20.7 mph N/A   Clear
12:55 AM 48.2 °F - 37.4 °F 66% 30.07 in 10.0 mi North 18.4 mph - N/A   Clear
1:15 AM 48.2 °F - 35.6 °F 62% 30.08 in 10.0 mi North 16.1 mph - N/A   Clear
1:35 AM 50.0 °F - 35.6 °F 58% 30.08 in 10.0 mi North 18.4 mph - N/A   Clear
1:55 AM 50.0 °F - 35.6 °F 58% 30.09 in 10.0 mi North 18.4 mph 21.9 mph N/A   Clear
2:15 AM 48.2 °F - 37.4 °F 66% 30.09 in 10.0 mi North 17.3 mph 21.9 mph N/A   Clear
2:35 AM 48.2 °F - 37.4 °F 66% 30.09 in 10.0 mi North 15.0 mph - N/A   Clear
2:55 AM 48.2 °F - 37.4 °F 66% 30.09 in 10.0 mi North 13.8 mph - N/A   Clear
3:15 AM 48.2 °F - 39.2 °F 71% 30.10 in 10.0 mi North 11.5 mph - N/A   Clear
3:35 AM 46.4 °F 40.4 °F 39.2 °F 76% 30.10 in 10.0 mi North 13.8 mph - N/A   Clear
3:55 AM 48.2 °F - 39.2 °F 71% 30.10 in 10.0 mi North 11.5 mph - N/A   Clear
4:15 AM 46.4 °F 42.4 °F 39.2 °F 76% 30.11 in 10.0 mi North 8.1 mph - N/A   Clear
4:35 AM 46.4 °F 42.9 °F 37.4 °F 71% 30.11 in 10.0 mi North 6.9 mph - N/A   Clear
4:55 AM 46.4 °F 41.1 °F 37.4 °F 71% 30.12 in 10.0 mi North 11.5 mph - N/A   Clear
5:15 AM 46.4 °F 41.5 °F 37.4 °F 71% 30.12 in 10.0 mi North 10.4 mph - N/A   Clear
5:35 AM 46.4 °F 41.5 °F 37.4 °F 71% 30.13 in 10.0 mi North 10.4 mph - N/A   Clear
5:55 AM 44.6 °F 39.2 °F 37.4 °F 76% 30.14 in 10.0 mi North 10.4 mph - N/A   Clear
6:15 AM 44.6 °F 39.7 °F 37.4 °F 76% 30.13 in 10.0 mi North 9.2 mph - N/A   Clear
6:35 AM 44.6 °F 39.7 °F 37.4 °F 76% 30.15 in 10.0 mi North 9.2 mph - N/A   Clear
6:55 AM 44.6 °F 40.2 °F 35.6 °F 71% 30.15 in 10.0 mi North 8.1 mph - N/A   Clear
7:15 AM 42.8 °F 38.0 °F 35.6 °F 76% 30.16 in 10.0 mi NNW 8.1 mph - N/A   Clear
7:35 AM 42.8 °F 38.6 °F 35.6 °F 76% 30.17 in 10.0 mi NNW 6.9 mph - N/A   Clear
7:55 AM 41.0 °F 35.8 °F 33.8 °F 76% 30.17 in 10.0 mi NNW 8.1 mph - N/A   Clear
8:15 AM 41.0 °F 36.4 °F 33.8 °F 76% 30.18 in 10.0 mi NNW 6.9 mph - N/A   Clear
8:35 AM 41.0 °F 35.2 °F 35.6 °F 81% 30.19 in 10.0 mi NNW 9.2 mph - N/A   Clear
8:55 AM 42.8 °F 38.0 °F 35.6 °F 76% 30.20 in 10.0 mi North 8.1 mph - N/A   Clear
9:15 AM 42.8 °F 38.0 °F 35.6 °F 76% 30.21 in 10.0 mi North 8.1 mph - N/A   Clear
9:35 AM 42.8 °F 38.0 °F 35.6 °F 76% 30.21 in 10.0 mi NNW 8.1 mph - N/A   Clear
9:55 AM 44.6 °F 40.2 °F 35.6 °F 71% 30.22 in 10.0 mi North 8.1 mph - N/A   Clear
10:15 AM 46.4 °F 42.9 °F 35.6 °F 66% 30.22 in 10.0 mi NNW 6.9 mph - N/A   Clear
10:35 AM 46.4 °F 43.5 °F 35.6 °F 66% 30.23 in 10.0 mi NNW 5.8 mph - N/A   Clear
10:55 AM 48.2 °F - 35.6 °F 62% 30.22 in 10.0 mi NW 5.8 mph - N/A   Clear
11:15 AM 48.2 °F - 35.6 °F 62% 30.21 in 10.0 mi NNW 4.6 mph - N/A   Clear
11:35 AM 50.0 °F - 35.6 °F 58% 30.21 in 10.0 mi NW 8.1 mph - N/A   Clear
11:55 AM 51.8 °F - 37.4 °F 58% 30.20 in 10.0 mi NW 6.9 mph - N/A   Clear
12:15 PM 53.6 °F - 37.4 °F 54% 30.20 in 10.0 mi WNW 10.4 mph - N/A   Clear
12:35 PM 55.4 °F - 37.4 °F 51% 30.20 in 10.0 mi WNW 4.6 mph - N/A   Clear
12:55 PM 55.4 °F - 37.4 °F 51% 30.19 in 10.0 mi WNW 9.2 mph - N/A   Clear
1:15 PM 57.2 °F - 37.4 °F 48% 30.18 in 10.0 mi NW 11.5 mph - N/A   Clear
1:35 PM 59.0 °F - 35.6 °F 42% 30.17 in 10.0 mi NNW 9.2 mph - N/A   Clear
1:55 PM 60.8 °F - 35.6 °F 39% 30.16 in 10.0 mi NW 11.5 mph 16.1 mph N/A   Clear
2:15 PM 60.8 °F - 33.8 °F 36% 30.15 in 10.0 mi NNW 15.0 mph 19.6 mph N/A   Clear
2:35 PM 62.6 °F - 30.2 °F 30% 30.15 in 10.0 mi NNW 9.2 mph - N/A   Clear
2:55 PM 60.8 °F - 28.4 °F 29% 30.14 in 10.0 mi North 5.8 mph - N/A   Clear
3:15 PM 62.6 °F - 28.4 °F 27% 30.13 in 10.0 mi NNW 10.4 mph 17.3 mph N/A   Clear
3:35 PM 62.6 °F - 30.2 °F 30% 30.12 in 10.0 mi North 11.5 mph - N/A   Clear
3:55 PM 62.6 °F - 28.4 °F 27% 30.12 in 10.0 mi NNW 9.2 mph - N/A   Clear
4:15 PM 62.6 °F - 28.4 °F 27% 30.12 in 10.0 mi North 9.2 mph - N/A   Clear
4:35 PM 62.6 °F - 28.4 °F 27% 30.12 in 10.0 mi NNW 8.1 mph - N/A   Clear
4:55 PM 62.6 °F - 28.4 °F 27% 30.13 in 10.0 mi NW 11.5 mph - N/A   Clear
5:15 PM 62.6 °F - 28.4 °F 27% 30.12 in 10.0 mi WNW 10.4 mph - N/A   Clear
5:35 PM 62.6 °F - 26.6 °F 26% 30.13 in 10.0 mi WNW 9.2 mph - N/A   Clear
5:55 PM 60.8 °F - 26.6 °F 27% 30.13 in 10.0 mi WNW 10.4 mph - N/A   Clear
6:15 PM 60.8 °F - 26.6 °F 27% 30.13 in 10.0 mi NW 8.1 mph - N/A   Clear
6:35 PM 59.0 °F - 26.6 °F 29% 30.13 in 10.0 mi NW 6.9 mph - N/A   Clear
6:55 PM 55.4 °F - 26.6 °F 33% 30.13 in 10.0 mi West 5.8 mph - N/A   Clear
7:15 PM 53.6 °F - 28.4 °F 38% 30.13 in 10.0 mi West 5.8 mph - N/A   Clear
7:35 PM 51.8 °F - 28.4 °F 41% 30.12 in 10.0 mi WSW 5.8 mph - N/A   Clear
7:55 PM 48.2 °F - 26.6 °F 43% 30.12 in 10.0 mi WSW 6.9 mph - N/A   Clear
8:15 PM 46.4 °F 41.9 °F 28.4 °F 50% 30.12 in 10.0 mi WSW 9.2 mph - N/A   Clear
8:35 PM 44.6 °F 40.2 °F 28.4 °F 53% 30.12 in 10.0 mi WSW 8.1 mph - N/A   Clear
8:55 PM 44.6 °F 39.7 °F 28.4 °F 53% 30.13 in 10.0 mi WSW 9.2 mph - N/A   Clear
9:15 PM 44.6 °F 39.7 °F 28.4 °F 53% 30.12 in 10.0 mi WSW 9.2 mph - N/A   Clear
9:35 PM 42.8 °F 38.0 °F 28.4 °F 57% 30.12 in 10.0 mi WSW 8.1 mph - N/A   Clear
9:55 PM 41.0 °F 34.7 °F 28.4 °F 61% 30.13 in 10.0 mi WSW 10.4 mph - N/A   Clear
10:15 PM 44.6 °F 38.8 °F 28.4 °F 53% 30.13 in 10.0 mi WSW 11.5 mph - N/A   Clear
10:35 PM 44.6 °F 39.2 °F 30.2 °F 57% 30.13 in 10.0 mi WSW 10.4 mph - N/A   Clear
10:55 PM 44.6 °F 39.7 °F 30.2 °F 57% 30.13 in 10.0 mi SW 9.2 mph - N/A   Clear
11:15 PM 44.6 °F 39.7 °F 30.2 °F 57% 30.13 in 10.0 mi WSW 9.2 mph - N/A   Clear
11:35 PM 44.6 °F 40.2 °F 28.4 °F 53% 30.14 in 10.0 mi WSW 8.1 mph - N/A   Clear
11:55 PM 44.6 °F 39.2 °F 28.4 °F 53% 30.14 in 10.0 mi WSW 10.4 mph - N/A   Clear